Regional Weather Roundup
Issued by NWS

Home | Current Version | Previous Version | Graphics & Text | Print | Product List | Glossary On
Versions: 1 2 3 4 5 6 7 8 9 10 11 12 13 14 15 16 17 18 19 20 21 22 23 24 25 26 27 28 29 30 31 32 33 34 35 36 37 38 39 40 41 42 43 44 45 46 47 48 49 50
000
ASUS43 KTOP 192159
RWRKS

WEATHER ROUNDUP FOR KANSAS
NATIONAL WEATHER SERVICE GOODLAND KS
400 PM CST FRI DEC 19 2014

NOTE:  "FAIR" INDICATES FEW OR NO CLOUDS BELOW 12,000 FEET WITH NO
SIGNIFICANT WEATHER AND/OR OBSTRUCTIONS TO VISIBILITY.

KSZ001>006-013>018-027>032-041>047-192300-
NORTHWEST KANSAS

CITY           SKY/WX    TMP DP  RH WIND       PRES   REMARKS
GOODLAND       SUNNY     48  24  39 SW9       30.05S
HAYS           SUNNY     46  30  53 S12       30.09S
HILL CITY      SUNNY     51  30  44 SW12      30.06S
RUSSELL        SUNNY     41  36  82 S15       30.09S
$$

KSZ061>065-074>080-084>089-192300-
SOUTHWEST KANSAS

CITY           SKY/WX    TMP DP  RH WIND       PRES   REMARKS
DODGE CITY     MOSUNNY   42  33  70 SW10      30.11S
ELKHART          N/A    N/A N/A N/A MISG        N/A
GARDEN CITY    SUNNY     45  33  63 SW10      30.09R
GREAT BEND     CLOUDY    37  32  81 SW10      30.13S WCI  30
LIBERAL        CLOUDY    43  34  70 SW9       30.13R
$$

KSZ066>073-081>083-090>101-192300-
SOUTHEAST KANSAS

CITY           SKY/WX    TMP DP  RH WIND       PRES   REMARKS
CHANUTE        CLOUDY    35  34  96 N3        30.20S FOG
COFFEYVILLE    CLOUDY    38  35  89 N5        30.21R
HUTCHINSON     CLOUDY    38  33  82 S7        30.15F
MEDICINE LODGE   N/A     39  34  82 S7        30.15F
NEWTON         CLOUDY    34  27  75 S5        30.18S
PARSONS        CLOUDY    38  35  89 N5        30.21S
WICHITA INTL   CLOUDY    37  32  82 S5        30.18S
WICHITA JABRA  CLOUDY    35  31  85 SW6       30.18R
WICHITA MCCONL CLOUDY    36  32  85 CALM      30.18S
WINFIELD       CLOUDY    38  32  79 CALM      30.20S
$$

KSZ007>012-019>026-033>040-048>060-102>105-192300-
NORTHEAST KANSAS

CITY           SKY/WX    TMP DP  RH WIND       PRES   REMARKS
CONCORDIA      CLOUDY    33  30  88 S9        30.13F
EMPORIA        CLOUDY    32  28  85 CALM      30.19R
LAWRENCE       CLOUDY    34  29  82 CALM      30.21S
MANHATTAN      CLOUDY    34  30  85 S3        30.18S
OLATHE IND     CLOUDY    33  30  88 CALM      30.20F
OLATHE EXE     CLOUDY    33  31  92 CALM      30.19S
SALINA         CLOUDY    35  31  85 S8        30.16S
TOPEKA BILLARD CLOUDY    33  28  81 SW7       30.21F
TOPEKA FORBES  CLOUDY    33  27  78 W6        30.20S
$$


USA.gov is the U.S. government's official web portal to all federal, state and local government web resources and services.